BAW368 EGLL-EDDF

Flight info

Callsign BAW368
Flight time N/A
Altitude 35000
Route DET L6 DVR UL9 KONAN UL607 SPI T180 NIVNU T847 IMCOM IMCOM1A
Aircraft B77W/H-SDE1E2E3FGHIJ2J3J4J5M1RWXY/LB1D1

Departure

Time N/A
Airport London Heathrow Airport (EGLL)

Arrival

Time 2026-04-13 14:26
Airport Frankfurt Main Airport (EDDF)
Time Latitude Longitude Altitude Speed Heading
2026-04-13 13:53 50.44695 5.98711 34975 ft 472 kts 112°
2026-04-13 13:54 50.42824 6.08564 34968 ft 471 kts 111°
2026-04-13 13:54 50.40933 6.18464 34089 ft 483 kts 112°
2026-04-13 13:54 50.39986 6.23414 33254 ft 479 kts 112°
2026-04-13 13:55 50.39026 6.28426 32193 ft 481 kts 112°
2026-04-13 13:55 50.38062 6.33439 31207 ft 480 kts 112°
2026-04-13 13:55 50.37098 6.38447 30236 ft 481 kts 111°
2026-04-13 13:55 50.36311 6.43529 29505 ft 479 kts 106°
2026-04-13 13:56 50.35848 6.48689 28752 ft 477 kts 101°
2026-04-13 13:56 50.35552 6.53831 28112 ft 471 kts 100°
2026-04-13 13:56 50.35272 6.58917 27457 ft 466 kts 100°
2026-04-13 13:56 50.34979 6.63957 26792 ft 462 kts 100°
2026-04-13 13:57 50.34670 6.68935 26146 ft 458 kts 101°
2026-04-13 13:57 50.34353 6.73871 25507 ft 454 kts 101°
2026-04-13 13:57 50.34043 6.78770 24887 ft 451 kts 101°
2026-04-13 13:57 50.33587 6.83582 24253 ft 443 kts 107°
2026-04-13 13:58 50.32799 6.88205 23654 ft 436 kts 113°
2026-04-13 13:58 50.31756 6.92620 22919 ft 429 kts 118°
2026-04-13 13:58 50.30484 6.96818 22325 ft 423 kts 120°
2026-04-13 13:58 50.29225 7.00951 21739 ft 419 kts 120°
2026-04-13 13:59 50.27988 7.05058 21192 ft 416 kts 119°
2026-04-13 13:59 50.26767 7.09143 20667 ft 414 kts 119°
2026-04-13 13:59 50.25551 7.13208 20128 ft 412 kts 119°
2026-04-13 13:59 50.24337 7.17260 19610 ft 411 kts 119°
2026-04-13 14:00 50.23128 7.21293 19076 ft 409 kts 119°
2026-04-13 14:00 50.21924 7.25306 18555 ft 407 kts 119°
2026-04-13 14:00 50.20720 7.29303 18001 ft 406 kts 118°
2026-04-13 14:00 50.19538 7.33293 17420 ft 404 kts 116°
2026-04-13 14:01 50.18540 7.37364 16872 ft 399 kts 113°
2026-04-13 14:01 50.17594 7.41401 16364 ft 393 kts 113°
2026-04-13 14:01 50.16657 7.45372 15858 ft 388 kts 113°
2026-04-13 14:01 50.15724 7.49296 15363 ft 384 kts 113°
2026-04-13 14:02 50.14808 7.53127 14880 ft 381 kts 113°
2026-04-13 14:02 50.13871 7.57034 14389 ft 379 kts 113°
2026-04-13 14:02 50.12964 7.60816 13913 ft 377 kts 113°
2026-04-13 14:02 50.12047 7.64626 13384 ft 375 kts 113°
2026-04-13 14:03 50.11139 7.68423 12869 ft 373 kts 112°
2026-04-13 14:03 50.10349 7.72251 12420 ft 370 kts 109°
2026-04-13 14:03 50.09621 7.76075 11981 ft 366 kts 109°
2026-04-13 14:03 50.08899 7.79865 11534 ft 363 kts 109°
2026-04-13 14:04 50.08336 7.83658 11107 ft 360 kts 98°
2026-04-13 14:04 50.08408 7.87570 10953 ft 365 kts 84°
2026-04-13 14:04 50.09043 7.91402 10935 ft 364 kts 72°
2026-04-13 14:04 50.09945 7.95001 10924 ft 348 kts 71°
2026-04-13 14:05 50.10816 7.98420 10918 ft 332 kts 71°
2026-04-13 14:05 50.11640 8.01684 10922 ft 316 kts 71°
2026-04-13 14:05 50.12420 8.04804 10906 ft 302 kts 72°
2026-04-13 14:05 50.13159 8.07794 10924 ft 289 kts 72°
2026-04-13 14:06 50.13878 8.10738 10932 ft 291 kts 72°
2026-04-13 14:06 50.14587 8.13649 10938 ft 291 kts 72°
2026-04-13 14:06 50.15299 8.16580 10811 ft 289 kts 72°
2026-04-13 14:06 50.16007 8.19498 10575 ft 287 kts 72°
2026-04-13 14:07 50.16713 8.22408 10309 ft 286 kts 72°
2026-04-13 14:07 50.17413 8.25307 10013 ft 285 kts 72°
2026-04-13 14:07 50.18111 8.28199 9716 ft 284 kts 73°
2026-04-13 14:07 50.18805 8.31077 9403 ft 282 kts 73°
2026-04-13 14:08 50.19431 8.33929 9072 ft 269 kts 83°
2026-04-13 14:08 50.19327 8.36743 8987 ft 263 kts 112°
2026-04-13 14:08 50.18407 8.39215 8894 ft 267 kts 134°
2026-04-13 14:08 50.16990 8.41032 8761 ft 263 kts 155°
2026-04-13 14:09 50.15303 8.42070 8670 ft 259 kts 162°
2026-04-13 14:09 50.13574 8.42593 8532 ft 252 kts 184°
2026-04-13 14:09 50.11906 8.41832 8468 ft 254 kts 208°
2026-04-13 14:09 50.10504 8.40095 8382 ft 263 kts 226°
2026-04-13 14:10 50.09574 8.37623 8263 ft 268 kts 246°
2026-04-13 14:10 50.08938 8.34892 8162 ft 269 kts 248°
2026-04-13 14:10 50.08299 8.32147 8038 ft 269 kts 248°
2026-04-13 14:10 50.07656 8.29409 7921 ft 269 kts 247°
2026-04-13 14:11 50.07011 8.26690 7832 ft 268 kts 247°
2026-04-13 14:11 50.06363 8.23980 7719 ft 266 kts 247°
2026-04-13 14:11 50.05717 8.21300 7607 ft 263 kts 247°
2026-04-13 14:11 50.05078 8.18661 7510 ft 259 kts 247°
2026-04-13 14:12 50.04449 8.16080 7409 ft 256 kts 247°
2026-04-13 14:12 50.03817 8.13494 7303 ft 258 kts 247°
2026-04-13 14:12 50.03174 8.10869 7246 ft 262 kts 247°
2026-04-13 14:12 50.02525 8.08205 7144 ft 265 kts 247°
2026-04-13 14:13 50.01870 8.05523 7036 ft 265 kts 248°
2026-04-13 14:13 50.01218 8.02853 6880 ft 261 kts 248°
2026-04-13 14:13 50.00583 8.00252 6781 ft 254 kts 248°
2026-04-13 14:14 49.99324 7.95117 6660 ft 259 kts 248°
2026-04-13 14:14 49.98677 7.92486 6575 ft 261 kts 248°
2026-04-13 14:14 49.98030 7.89873 6459 ft 256 kts 245°
2026-04-13 14:14 49.97007 7.87684 6352 ft 251 kts 217°
2026-04-13 14:15 49.95442 7.86554 6258 ft 250 kts 196°
2026-04-13 14:15 49.93868 7.85410 6238 ft 255 kts 220°
2026-04-13 14:15 49.92821 7.83179 6246 ft 261 kts 248°
2026-04-13 14:15 49.92565 7.80382 5993 ft 267 kts 276°
2026-04-13 14:16 49.93208 7.77740 5883 ft 260 kts 306°
2026-04-13 14:16 49.94555 7.75977 5859 ft 254 kts 335°
2026-04-13 14:16 49.96302 7.75453 5891 ft 264 kts
2026-04-13 14:16 49.98074 7.76300 5832 ft 273 kts 31°
2026-04-13 14:17 49.99466 7.78336 5443 ft 282 kts 58°
2026-04-13 14:17 50.00170 7.81121 4895 ft 279 kts 79°
2026-04-13 14:17 50.00424 7.84061 4339 ft 270 kts 88°
2026-04-13 14:17 50.00228 7.86855 4065 ft 255 kts 109°
2026-04-13 14:18 49.99481 7.89461 4021 ft 269 kts 117°
2026-04-13 14:18 49.98619 7.92014 3991 ft 262 kts 118°
2026-04-13 14:18 49.97791 7.94495 3997 ft 255 kts 115°
2026-04-13 14:18 49.97218 7.97074 3997 ft 253 kts 103°
2026-04-13 14:19 49.96848 7.99771 4005 ft 256 kts 101°
2026-04-13 14:19 49.96500 8.02505 4026 ft 260 kts 101°
2026-04-13 14:19 49.96148 8.05273 4004 ft 262 kts 101°
2026-04-13 14:19 49.95803 8.08029 3987 ft 258 kts 100°
2026-04-13 14:20 49.95460 8.10753 3999 ft 255 kts 101°
2026-04-13 14:20 49.95123 8.13456 4003 ft 253 kts 101°
2026-04-13 14:20 49.94794 8.16104 3995 ft 246 kts 100°
2026-04-13 14:20 49.94635 8.18646 3987 ft 228 kts 81°
2026-04-13 14:21 49.95046 8.20928 3994 ft 215 kts 71°
2026-04-13 14:21 49.95540 8.23113 3990 ft 213 kts 70°
2026-04-13 14:21 49.96034 8.25217 3953 ft 200 kts 69°
2026-04-13 14:21 49.96504 8.27192 3946 ft 194 kts 69°
2026-04-13 14:22 49.96974 8.29157 3661 ft 197 kts 69°
2026-04-13 14:22 49.97445 8.31131 3399 ft 192 kts 69°
2026-04-13 14:22 49.97904 8.33051 3132 ft 187 kts 68°
2026-04-13 14:22 49.98348 8.34912 2869 ft 181 kts 68°
2026-04-13 14:23 49.98784 8.36738 2638 ft 182 kts 68°
2026-04-13 14:23 49.99226 8.38591 2412 ft 183 kts 68°
2026-04-13 14:23 49.99670 8.40453 2151 ft 184 kts 68°
2026-04-13 14:23 50.00107 8.42286 1880 ft 175 kts 68°
2026-04-13 14:24 50.00509 8.43976 1650 ft 159 kts 68°
2026-04-13 14:24 50.00876 8.45514 1448 ft 147 kts 67°
2026-04-13 14:24 50.01234 8.47014 1250 ft 149 kts 67°
2026-04-13 14:24 50.01592 8.48516 1033 ft 148 kts 67°
2026-04-13 14:25 50.01945 8.50002 832 ft 145 kts 68°
2026-04-13 14:25 50.02304 8.51476 634 ft 146 kts 68°
2026-04-13 14:25 50.02643 8.52943 431 ft 143 kts 68°
2026-04-13 14:25 50.02980 8.54371 349 ft 137 kts 67°
2026-04-13 14:26 50.03275 8.55594 349 ft 100 kts 70°
2026-04-13 14:26 50.03465 8.56383 363 ft 56 kts 70°
2026-04-13 14:26 50.03550 8.56743 359 ft 25 kts 69°
2026-04-13 14:26 50.03627 8.56972 362 ft 23 kts 60°
2026-04-13 14:27 50.03708 8.57133 367 ft 14 kts 24°
2026-04-13 14:27 50.03782 8.57191 367 ft 11 kts 33°
2026-04-13 14:27 50.03842 8.57263 369 ft 11 kts 39°
2026-04-13 14:27 50.03900 8.57338 371 ft 11 kts 39°
2026-04-13 14:28 50.03956 8.57431 372 ft 15 kts 60°
2026-04-13 14:28 50.04000 8.57599 372 ft 21 kts 70°
2026-04-13 14:28 50.04052 8.57817 373 ft 22 kts 69°
2026-04-13 14:28 50.04105 8.58036 377 ft 22 kts 69°
2026-04-13 14:29 50.04158 8.58255 377 ft 22 kts 70°
2026-04-13 14:29 50.04210 8.58474 376 ft 22 kts 69°
2026-04-13 14:29 50.04264 8.58692 378 ft 22 kts 69°
2026-04-13 14:29 50.04315 8.58912 380 ft 22 kts 70°
2026-04-13 14:30 50.04368 8.59131 381 ft 22 kts 69°
2026-04-13 14:30 50.04420 8.59345 380 ft 18 kts 70°
2026-04-13 14:30 50.04502 8.59470 379 ft 18 kts
2026-04-13 14:30 50.04631 8.59462 377 ft 19 kts 354°
2026-04-13 14:31 50.04755 8.59410 377 ft 19 kts 340°
2026-04-13 14:31 50.04881 8.59367 377 ft 20 kts
2026-04-13 14:31 50.05018 8.59326 373 ft 18 kts 340°
2026-04-13 14:31 50.05073 8.59195 370 ft 8 kts 263°
2026-04-13 14:32 50.05089 8.59122 371 ft 8 kts 314°
2026-04-13 14:32 50.05135 8.59088 368 ft 5 kts 339°
2026-04-13 14:32 50.05147 8.59080 370 ft 0 kts 338°